Flag for Germany Weather past 2 weeks in Emsdetten, North Rhine-Westphalia, Germany

Now
64 °F

Broken clouds.


Feels Like: 64 °F
Forecast: 59 / 73 °F
Wind: 6 mph from East

Location: Muenster / Osnabrueck

Current Time: Sep 15, 2014 at 12:35:09 PM

Latest Report: Sep 15, 2014 at 11:50 AM


Visibility: 6 mi

Pressure: 30.07 "Hg

Humidity: 88%

Dew point: 61 °F

Location of EmsdettenLocation

Historic Weather in Emsdetten — Graph

°F

Emsdetten temperature yesterday

Maximum temperature yesterday: 68 °F (at 3:50 PM)
Minimum temperature yesterday: 54 °F (at 12:20 AM)
Average temperature yesterday: 60 °F

Past Weeks' High & Low Weather Summary

 TemperatureHumidityPressure
High77 °F (Sep 4, 4:20 PM)100% (Aug 31, 10:20 PM)30.27 "Hg (Aug 31, 10:20 PM)
Low46 °F (Sep 9, 6:20 AM)49% (Sep 8, 5:20 PM)29.86 "Hg (Sep 6, 3:50 PM)
Average60 °F84%30.09 "Hg
* Reported Aug 31 11:20 AM — Sep 15 11:20 AM, Emsdetten, Weather by CustomWeather, © 2014

Note: Actual official high and low records may vary slightly from our data, if they occured in-between our weather recording intervals... More about our weather records

Advertising

Emsdetten weather history for previous 24 hours

 ConditionsComfort  
Time TempWeatherWind HumidityBarometerVisibility
11:20 AM
Sep 15
63 °FPartly sunny.7 mph88%30.07 "Hg6 mi
10:20 AM61 °FPartly sunny.6 mph94%30.07 "Hg6 mi
9:50 AM59 °FPartly sunny.6 mph100%30.07 "Hg5 mi
9:20 AM59 °FBroken clouds.2 mph100%30.07 "Hg5 mi
8:50 AM57 °FClear.1 mph100%30.07 "Hg5 mi
8:20 AM54 °FClear.1 mph100%30.07 "Hg4 mi
7:50 AM52 °FFog.2 mph100%30.07 "Hg4 mi
7:20 AM50 °FCool.2 mph100%30.07 "Hg4 mi
6:50 AM52 °FFog.1 mph100%30.07 "Hg2 mi
6:20 AM54 °FFog.2 mph100%30.07 "HgN/A
5:50 AM52 °FClear.1 mph100%30.07 "Hg5 mi
5:20 AM52 °FClear.1 mph100%30.07 "Hg4 mi
4:20 AM48 °FFog.1 mph100%30.07 "Hg1 mi
3:50 AM48 °FFog.2 mph100%30.07 "Hg1 mi
3:20 AM50 °FFog.1 mph100%30.07 "Hg1 mi
2:50 AM50 °FFog.1 mph100%30.07 "Hg1 mi
2:20 AM52 °FSnow. Overcast.1 mph100%30.09 "HgN/A
1:50 AM54 °FCool.1 mph100%30.09 "HgN/A
1:20 AM54 °FSnow. Overcast.3 mph100%30.09 "HgN/A
12:50 AM54 °FCool.3 mph100%30.09 "HgN/A
12:20 AM54 °FSleet. Overcast.1 mph100%30.09 "HgN/A
11:50 PM
Sep 14
54 °FSnow. Overcast.1 mph100%30.09 "HgN/A
11:20 PM55 °FCool.2 mph100%30.09 "HgN/A
10:50 PM57 °FFog.2 mph100%30.09 "HgN/A
10:20 PM57 °FClear.2 mph94%30.09 "Hg10 mi
9:50 PM59 °FClear.3 mph94%30.09 "Hg10 mi
9:20 PM59 °FPassing clouds.5 mph94%30.09 "HgN/A
8:50 PM59 °FPassing clouds.6 mph88%30.09 "HgN/A
8:20 PM61 °FScattered clouds.5 mph88%30.09 "HgN/A
7:50 PM63 °FScattered clouds.5 mph83%30.09 "HgN/A
7:20 PM64 °FScattered clouds.3 mph78%30.09 "HgN/A
6:50 PM68 °FScattered clouds.2 mph64%30.09 "HgN/A
6:20 PM68 °FPassing clouds.5 mph64%30.09 "HgN/A
5:50 PM68 °FPassing clouds.2 mph64%30.09 "HgN/A
5:20 PM68 °FPassing clouds.6 mph64%30.09 "HgN/A
4:50 PM68 °FPassing clouds.3 mph64%30.09 "HgN/A
4:20 PM66 °FPassing clouds.5 mph68%30.09 "HgN/A
3:50 PM68 °FScattered clouds.2 mph64%30.12 "HgN/A
3:20 PM66 °FPartly sunny.2 mph73%30.12 "HgN/A
2:50 PM66 °FBroken clouds.3 mph73%30.12 "HgN/A
2:20 PM64 °FBroken clouds.3 mph78%30.15 "HgN/A
1:50 PM64 °FPartly sunny.3 mph78%30.15 "HgN/A
1:20 PM64 °FBroken clouds.5 mph78%30.15 "HgN/A
12:50 PM64 °FBroken clouds.2 mph78%30.15 "HgN/A
12:20 PM63 °FPartly sunny.5 mph83%30.15 "HgN/A
Weather by CustomWeather, © 2014

See weather overviewHow to use our weather pages